This demonstration page uses our WeatherBlox Daily Observations layout. Learn more.

Left ArrowRight Arrow

39.29038, -76.61219

Hourly Observations for February 19, 2021

Temp ( °F °C ) Dew Point ( °F °C ) Humidity (%) Winds ( mph kmh ) Pressure ( in mb ) Visibility ( mi km ) Precip ( " mm )
12:39 am 00:39 Cloudy with Light Freezing Drizzle 30 -1.1 27 -2.8 88 88 NNW 5 7 30.20 1023 3 5 0.00 0.00
12:54 am 00:54 Cloudy with Light Freezing Drizzle 30 -1.1 27 -2.8 88 88 N 7 11 30.18 1022 3 5 0.00 0.00
1:54 am 01:54 Cloudy with Light Freezing Drizzle 30 -1.1 27 -2.8 88 88 NNE 6 9 30.15 1021 3 5 0.00 0.00
2:54 am 02:54 Cloudy with Light Freezing Drizzle 30 -1.1 27 -2.8 88 88 N 6 9 30.15 1021 3 5 0.00 0.00
3:12 am 03:12 Cloudy with Light Freezing Drizzle 30 -1.1 27 -2.8 88 88 NNE 3 6 30.15 1021 2 3 0.00 0.00
3:51 am 03:51 Cloudy with Light Freezing Drizzle 30 -1 27 -3 86 86 N 6 9 30.14 1021 3 5 0.00 0.00
3:54 am 03:54 Cloudy with Light Freezing Drizzle 30 -1.1 27 -2.8 88 88 NNE 7 11 30.13 1020 3 5 0.00 0.00
4:16 am 04:16 Cloudy with Light Freezing Rain 29 -1.7 26 -3.3 89 89 N 8 13 30.13 1020 3 5 0.01 0.25
4:33 am 04:33 Cloudy with Light Freezing Drizzle 29 -1.7 26 -3.3 89 89 NNW 7 11 30.15 1021 4 6 0.01 0.25
4:54 am 04:54 Cloudy with Light Freezing Drizzle 30 -1.1 27 -2.8 88 88 N 5 7 30.13 1020 4 6 0.01 0.25
5:54 am 05:54 Cloudy with Light Freezing Drizzle 29 -1.7 26 -3.3 89 89 N 8 13 30.14 1021 4 6 0.00 0.00
6:54 am 06:54 Cloudy with Light Freezing Drizzle 29 -1.7 26 -3.3 89 89 N 8 13 30.12 1020 3 5 0.00 0.00
7:47 am 07:47 Cloudy with Light Freezing Drizzle 30 -1.1 26 -3.3 85 85 NNW 6 9 30.15 1021 3 4 0.00 0.00
7:54 am 07:54 Cloudy with Light Freezing Drizzle 30 -1.1 27 -2.8 88 88 NW 7 11 30.15 1021 3 4 0.01 0.25
8:00 am 08:00 Cloudy with Light Snow 30 -1.1 27 -2.8 88 88 NNW 6 9 30.17 1022 2 3 0.00 0.00
8:07 am 08:07 Cloudy with Light Snow 30 -1.1 27 -2.8 88 88 NW 7 11 30.17 1022 2 2 0.00 0.00
8:36 am 08:36 Cloudy with Light Snow 30 -1.1 27 -2.8 88 88 NNW 6 9 30.16 1021 2 3 0.02 0.51
8:54 am 08:54 Cloudy with Light Snow 30 -1.1 27 -2.8 88 88 NNW 6 9 30.14 1021 1 2 0.03 0.76
9:39 am 09:39 Cloudy with Light Snow 31 -0.6 27 -2.8 85 85 NNW 9 15 30.14 1021 3 4 0.01 0.25
9:54 am 09:54 Cloudy with Light Snow 31 -0.6 27 -2.8 85 85 NNW 6 9 30.14 1021 3 4 0.01 0.25
9:56 am 09:56 Cloudy with Light Snow 31 -0.6 27 -2.8 85 85 NNW 6 9 30.15 1021 3 5 0.00 0.00
10:29 am 10:29 Cloudy with Light Freezing Rain 32 undefined 28 -2.2 85 85 N 5 7 30.15 1021 5 8 0.00 0.00
10:54 am 10:54 Cloudy with Light Freezing Drizzle 32 undefined 28 -2.2 85 85 NNW 6 9 30.14 1021 5 8 0.00 0.00
11:43 am 11:43 Cloudy with Drizzle 33 0.6 30 -1.1 89 89 NNW 8 13 30.12 1020 6 10 0.00 0.00
11:54 am 11:54 Cloudy with Drizzle 33 0.6 30 -1.1 89 89 NNW 6 9 30.11 1020 6 10 0.00 0.00
12:54 pm 12:54 Cloudy with Mist and Fog 35 1.7 31 -0.6 85 85 WNW 3 6 30.10 1019 6 10 0.00 0.00
1:20 pm 13:20 Cloudy with Mist and Fog 36 2.2 31 -0.6 82 82 NNW 5 7 30.09 1019 6 10 N/A
1:54 pm 13:54 Cloudy 36 2.2 30 -1.1 79 79 NNW 8 13 30.07 1018 7 11 N/A
2:18 pm 14:18 Cloudy 36 2.2 30 -1.1 79 79 NW 7 11 30.08 1019 10 16 N/A
2:54 pm 14:54 Cloudy 36 2.2 30 -1.1 79 79 NW 6 9 30.07 1018 10 16 N/A
3:01 pm 15:01 Cloudy 36 2.2 30 -1.1 79 79 NW 9 15 30.08 1019 10 16 N/A
3:54 pm 15:54 Mostly Cloudy 37 2.8 28 -2.2 70 70 NW 10 17 30.08 1019 10 16 N/A
4:54 pm 16:54 Cloudy 37 2.8 28 -2.2 70 70 NW 8 13 30.09 1019 10 16 N/A
5:54 pm 17:54 Mostly Cloudy 35 1.7 28 -2.2 76 76 VRB 6 9 30.09 1019 10 16 N/A
6:54 pm 18:54 Mostly Cloudy 34 1.1 28 -2.2 79 79 WNW 6 9 30.10 1019 10 16 N/A
7:54 pm 19:54 Cloudy 36 2.2 27 -2.8 70 70 WNW 8 13 30.11 1020 10 16 N/A
8:54 pm 20:54 Mostly Cloudy 36 2.2 25 -3.9 64 64 WNW 9 15 30.13 1020 10 16 N/A
9:54 pm 21:54 Mostly Cloudy 35 1.7 23 -5 61 61 WNW 13 20 30.14 1021 10 16 N/A
10:54 pm 22:54 Mostly Cloudy 33 0.6 20 -6.7 58 58 WNW 10 17 30.14 1021 10 16 N/A
11:54 pm 23:54 Partly Cloudy 31 -0.6 18 -7.8 59 59 WNW 10 17 30.16 1021 10 16 N/A

Powered by AerisWeather